Regional Weather Roundup
Issued by NWS Pendleton, OR

Home | Current Version | Previous Version | Text Only | Print | Product List | Glossary On
Versions: 1 2 3 4 5 6 7 8 9 10 11 12 13 14 15 16 17 18 19 20 21 22 23 24 25 26 27 28 29 30 31 32 33 34 35 36 37 38 39 40 41 42 43 44 45 46 47 48 49 50
000
ASUS46 KPDT 281410
RWRPDT
PENDLETON REGIONAL WEATHER ROUNDUP
NATIONAL WEATHER SERVICE PENDLETON OREGON
700 AM PDT TUE JUL 28 2015

NOTE: FAIR INDICATES FEW OR NO CLOUDS BELOW 12,000 FEET WITH NO
SIGNIFICANT WEATHER AND/OR OBSTRUCTIONS TO VISIBILITY.

# INDICATES UNOFFICIAL STATION AND DATA

WAZ520-281510-
EAST SLOPES OF WASHINGTON CASCADES

CITY            SKY/WX      TMP DP  RH  WIND    PRES   REMARKS
#BULLFROG 2SW   N/A         56  46  69  N3      27.84S
#BUMPING DAM    N/A         42  N/A N/A CALM    N/A
#CLE ELUM HS    N/A         51  44  77  CALM    30.18S
#CLE ELUM LAKE  N/A         51  43  74  N1      30.16S
#CLIFFDEL 2NW   N/A         46  41  83  N1      N/A
#EASTON DOT     N/A         53  40  61  CALM    N/A
#GLENWOOD       N/A         39  38  96  CALM    30.22R
#MANASTASH CYN  N/A         55  37  51  CALM    30.20R
#NELSON         N/A         54  47  77  CALM    30.20S
#NELSON 3SW     N/A         53  43  69  CALM    30.38S
#NILE           N/A         50  44  80  CALM    29.48S
#PEOH POINT     N/A         49  42  77  SW7     N/A
#RONALD 2NW     N/A         52  28  39  CALM    30.11S
#SNOWDEN        N/A         43  36  76  CALM    N/A
#TEANAWAY 4NE   N/A         47  42  83  W1      N/A
#TROUT LAKE 1NE N/A         44  41  89  CALM    30.20R
$$

WAZ521-281510-
SIMCOE HIGHLANDS

CITY            SKY/WX      TMP DP  RH  WIND    PRES   REMARKS
#BICKLETON HS   N/A         52  31  44  CALM    N/A
#SATUS PASS DOT N/A         46  37  71  CALM    N/A
#CENTERVILLE 4W N/A         54  46  74  N2      29.98R
#CENTERVILLE 1SWN/A         44  38  79  CALM    30.18R
#GOLDENDALE     N/A         45  38  76  E2      N/A
#GOLDENDALE 1NE N/A         47  28  47  N3      N/A
#GOLDENDALE 5WNWN/A         49  42  77  CALM    30.18S
#GOODNOE HILLS  N/A         60  50  69  NW8     N/A
#LYLE 6NE       N/A         53  49  86  CALM    30.16S
$$

WAZ026-281510-
KITTITAS VALLEY

CITY            SKY/WX      TMP DP  RH  WIND    PRES   REMARKS
ELLENSBURG AP   PTCLDY      61  43  51  NW10    30.22R
YTC-OPS AREA    N/A         55  40  57  W21G28  30.21R
#ELLENSBURG CWU N/A         57  45  64  NW7     30.14R
#ELLENSBURG 3NE N/A         56  44  64  CALM    30.22R
#ELLENSBURG 1E  N/A         55  42  61  CALM    N/A
#KITTITAS 3S    N/A         50  47  89  CALM    30.17R
#THORP 6N       N/A         52  43  71  N9      30.20R
$$

WAZ027-281510-
YAKIMA VALLEY

CITY            SKY/WX      TMP DP  RH  WIND    PRES   REMARKS
SUNNYSIDE AP    PTCLDY      50  45  83  CALM    30.21R
YAKIMA AIRPORT  PTCLDY      60  41  49  W5      30.23R
#DONALD 2NE     N/A         69  33  26  CALM    29.06R
#GRANDVIEW      N/A         54  43  66  CALM    30.20R
#MABTON         N/A         56  48  74  CALM    30.20R
#MOXEE 2E       N/A         59  36  42  CALM    30.14F
#NACHES 2SW     N/A         59  47  64  W7      30.22R
#TERRACE HTS    N/A         59  44  57  N1      30.14R
#TOPPENISH      N/A         56  44  64  CALM    30.11R
#WAPATO 4NE     N/A         69  33  26  CALM    29.06R
#WEST VALLEY    N/A         59  44  57  CALM    30.16S
#WHITE SWAN 5E  N/A         46  40  79  W1      30.20R
#WILEY CITY 3W  N/A         57  33  40  CALM    30.19R
$$

WAZ028-281510-
LOWER COLUMBIA BASIN...WASHINGTON

CITY            SKY/WX      TMP DP  RH  WIND    PRES   REMARKS
PASCO           SUNNY       56  48  74  N3      30.21R
RICHLAND AWOS   SUNNY       63  45  52  CALM    30.21R
#BASIN CITY 5SW N/A         52  47  83  CALM    30.20R
#BENTON CITY    N/A         56  45  66  W2      30.10R
#CONNELL 5N     N/A         51  41  68  CALM    30.17R
#CONNELL 5NW    N/A         55  46  72  CALM    30.15R
#ELTOPIA 6NW    N/A         55  48  77  CALM    29.17R
#KAHLOTUS       N/A         57  43  59  W6      30.17R
#KENNEWICK      N/A         56  46  69  N3      27.84S
#KENNEWICK 3S   N/A         60  46  60  N5      30.18R
#PATERSON       N/A         56  47  72  NE1     30.19R
#PROSSER DOT    N/A         51  45  80  CALM    N/A
#PROSSER        N/A         58  41  53  CALM    30.18R
#SAGEMOOR 2W    N/A         54  48  80  CALM    30.03R
#TOUCHET 2S     N/A         51  43  74  NW1     30.18R
#WEST PASCO     N/A         56  47  72  CALM    30.22R
$$

WAZ029-281510-
FOOTHILLS OF THE BLUES...WASHINGTON

CITY            SKY/WX      TMP DP  RH  WIND    PRES   REMARKS
WALLA WALLA AP  SUNNY       62  42  48  SE5     30.23R
#DAYTON SCHOOL  N/A         56  39  53  E2      30.21R
#LOWDEN 2SE     N/A         55  45  69  CALM    30.18R
#PLEASANT VIEW 1N/A         57  42  57  S7      30.21R
#PRESCOTT       N/A         50  43  77  CALM    30.20R
#SUDBURY        N/A         53  N/A N/A CALM    N/A
#WHITMAN COLLEGEN/A         61  45  56  SE1     30.24R
#WAITSBURG 8N   N/A         60  23  24  S7      30.06S
#WALLA WALLA U  N/A         60  45  58  CALM    30.19R
#WHITMAN MISSIONN/A         53  47  80  CALM    30.21R
$$

WAZ030-281510-
BLUE MOUNTAINS...WASHINGTON

CITY            SKY/WX      TMP DP  RH  WIND    PRES   REMARKS
$$

ORZ009-041-WAZ024-281510-
COLUMBIA RIVER GORGE

CITY            SKY/WX      TMP DP  RH  WIND    PRES   REMARKS
HOOD RIVER AP   SUNNY       52  46  80  CALM    30.24R
THE DALLES AP   SUNNY       58  47  67  E5      30.22R
#ARLINGTON AIRPON/A         59  49  69  W5      29.81S
#CELILO DOT     N/A         62  50  65  SW2     N/A
#MARYHILL       N/A         59  48  67  CALM    N/A
#MOSIER 1S      N/A         56  46  69  CALM    30.23S
#MURDOCK        N/A         61  53  75  W3      30.23R

$$

ORZ510-281510-
NORTH CENTRAL OREGON

CITY            SKY/WX      TMP DP  RH  WIND    PRES   REMARKS
#CHENOWITH 1W   N/A         53  49  86  NW13    N/A
#COW CYN RST AREN/A         51  N/A N/A CALM    N/A
#DUFUR 9E       N/A         58  46  64  CALM    30.24R
#GRASS VALLEY 1SN/A         48  41  77  CALM    30.23R
#MAUPIN SCHOOL  N/A         52  43  71  CALM    30.25R
#MORO SCHOOL    N/A         50  47  89  CALM    30.25R
#SHANIKO 5WSW   N/A         48  40  74  SE8     N/A
#SHANIKO 4NW    N/A         52  41  66  S6      30.26S
#TYGH VALLEY 2NEN/A         48  41  77  CALM    30.22R
#WAPANITIA AIRPON/A         52  45  77  CALM    30.22R
#WASCO DOT      N/A         47  45  93  SE2     N/A
#WASCO 5NE      N/A         55  47  74  CALM    30.19S
$$

ORZ511-281510-
CENTRAL OREGON

CITY            SKY/WX      TMP DP  RH  WIND    PRES   REMARKS
BEND AIRPORT    SUNNY       46  36  68  S6      30.28R
MADRAS AIRPORT  SUNNY       46  41  83  S5      30.29R
PRINEVILLE AP   SUNNY       46  37  71  CALM    30.28R
REDMOND AIRPORT SUNNY       44  35  70  SE6     30.28R
#BEND 1SW       N/A         41  36  82  CALM    N/A
#BEND-AWBREY    N/A         48  40  74  S3      30.19R
#BEND-KIM LN    N/A         45  38  76  S5      30.24S
#CROOKED RVR RANN/A         47  40  76  CALM    30.19R
#CULVER         N/A         47  40  76  CALM    30.23R
#LAKE BILLY CHINN/A         48  29  47  CALM    30.30R
#POWELL BUTTE 3EN/A         39  36  89  SE2     N/A
#POWELL BUTTE   N/A         49  41  74  E1      29.88R
#PRINEVILLE 3N  N/A         44  42  93  E2      30.18R
#WARM SPRINGS   N/A         50  41  71  CALM    30.22S

$$


ORZ509-281510-
EAST SLOPES OF OREGON CASCADES

CITY            SKY/WX      TMP DP  RH  WIND    PRES   REMARKS
#BLUE BOX PASS  N/A         45  -7  11  CALM    N/A
#CAMP SHERMAN   N/A         33  30  89  CALM    30.28R
#LA PINE 4NW    N/A         30  25  81  CALM    30.24S
#SISTERS AIRPOR N/A         39  36  89  CALM    30.17S
#SISTERS 3N     N/A         36  26  67  CALM    30.37S
#SUNRIVER       N/A         37  34  89  CALM    30.09S
#TUMALO 3W      N/A         48  39  71  S5      30.08R
#WANOGA BUTTE D N/A         47  33  58  CALM    N/A

$$

ORZ044-281510-
LOWER COLUMBIA BASIN...OREGON

CITY            SKY/WX      TMP DP  RH  WIND    PRES   REMARKS
HERMISTON       SUNNY       60  44  55  CALM    30.22R
#BOARDMAN SCHOOLN/A         55  45  69  SW2     30.22S
#BOARDMAN 8SW   N/A         57  48  72  SW5     30.19R
#ECHO 8SW       N/A         58  45  62  SW1     30.22R
#IONE SCHOOL    N/A         53  38  57  E1      30.19S
#IRRIGON 4NW    N/A         55  46  72  SE3     N/A
#UMATILLA       N/A         59  45  60  CALM    30.14R
$$

ORZ507-281510-
NORTHERN FOOTHILLS OF THE BLUES

CITY            SKY/WX      TMP DP  RH  WIND    PRES   REMARKS
PENDLETON AIRPT SUNNY       56  40  55  SE8     30.23R
#ADAMS 3WNW     N/A         50  39  66  N1      30.21R
#ATHENA         N/A         58  42  55  CALM    30.22R
#CAYUSE         N/A         56  42  59  E6      30.19R
#HELIX SCHOOL   N/A         47  38  71  CALM    30.20R
#HELIX 3N       N/A         55  41  59  N10     30.19R
#HOLDMAN 5SE    N/A         54  42  64  CALM    30.23R
#HOLDMAN 6E     N/A         51  42  71  SE1     30.01R
#M-F GROVE ELEM N/A         58  40  51  CALM    30.20R
#M-FREEWATER 5SEN/A         57  43  59  E8      30.22R
#PENDLETON DNTN N/A         50  34  54  CALM    30.19S
#PDT AQUATIC CTRN/A         53  35  50  CALM    30.21R
#PDT SUNRIDGE   N/A         54  41  61  CALM    30.25R
#PENDLETON 7NW  N/A         52  40  63  CALM    N/A
#PILOT ROCK     N/A         56  38  51  E2      30.25R
#TUTUILLA       N/A         50  41  71  CALM    30.22R
#UMAPINE 2E     N/A         57  48  72  S1      30.19R
#WESTON SCHOOL  N/A         59  39  47  CALM    30.13R

$$

ORZ508-281510-
SOUTHERN FOOTHILLS OF THE BLUES

CITY            SKY/WX      TMP DP  RH  WIND    PRES   REMARKS
#AJAX           N/A         55  38  53  S2      30.16R
#CONDON SCHOOL  N/A         50  41  71  CALM    30.20R
#CONDON 5W      N/A         53  41  64  SW2     30.22S
#FOSSIL SCHOOL  N/A         45  40  82  CALM    30.20R
#HEPPNER EOC    N/A         52  41  66  SE6     30.14R
#HEPPNER 4NE    N/A         57  42  57  CALM    30.19R
#LEXINGTON 2SE  N/A         54  42  64  SE7     30.22S
#OLEX 4N        N/A         55  45  69  SW6     30.20R
#RUGGS 5NE      N/A         58  42  55  S1      30.43R
#RUGGS 2SW      N/A         54  40  59  SW6     30.21R

$$

ORZ502-503-281510-
BLUE MOUNTAINS

CITY            SKY/WX      TMP DP  RH  WIND    PRES   REMARKS
MEACHAM         SUNNY       37  34  89  CALM    30.28R
#BATTLE MTN DOT N/A         41  41  100 S2      N/A
#HEPPNER 15SE   N/A         43  38  82  CALM    30.19R
#LONG CREEK HS  N/A         44  42  93  CALM    30.24R
#N POWDER DOT   N/A         36  36  100 CALM    N/A
#PIKES PEAK     N/A         54  39  57  SW12    27.99S
#TOLLGATE       N/A         45  40  82  CALM    30.13R
#TROY SCHOOL    N/A         52  42  69  CALM    30.08R
#UKIAH          N/A         34  32  92  CALM    30.31R
#WESTON 4E      N/A         52  40  63  SE3     30.15R
$$

ORZ505-281510-
JOHN DAY BASIN

CITY            SKY/WX      TMP DP  RH  WIND    PRES   REMARKS
JOHN DAY        SUNNY       48  36  63  E9      30.29S
#JOHN DAY KJDY  N/A         43  36  76  N3      30.32F
#DAYVILLE SCHOOLN/A         49  37  63  CALM    30.24R
#MITCHELL       N/A         47  41  79  CALM    30.40S
#MONUMENT HS    N/A         46  36  68  CALM    30.27R
#MT. VERNON 5SE N/A         51  38  61  CALM    30.24R
#WINLOCK        N/A         54  43  66  CALM    30.33R
$$

ORZ506-281510-
OCHOCO AND JOHN DAY HIGHLANDS

CITY            SKY/WX      TMP DP  RH  WIND    PRES   REMARKS
#BUCK CREEK DOT N/A         50  50  100 CALM    N/A
#HORSE RIDGE DO N/A         27  22  81  SE2     N/A
#KEYES SMT DOT  N/A         47  39  74  N3      N/A
#PAULINA SCHOOL N/A         38  33  82  CALM    30.22R
#PINE MTN OBS   N/A         47  34  60  SE5     N/A
#PRAIRIE CITY   N/A         38  36  92  CALM    30.41F
#SENECA         N/A         32  N/A N/A CALM    N/A
#SENECA 9NW     N/A         29  27  92  CALM    30.23R
$$

ORZ049-281510-
GRANDE RONDE VALLEY

CITY            SKY/WX      TMP DP  RH  WIND    PRES   REMARKS
LA GRANDE       SUNNY       46  30  53  CALM    30.27R
#COVE           N/A         45  41  86  CALM    30.28R
#COVE SCHOOL    N/A         44  39  82  CALM    30.28R
#COVE 6NW       N/A         40  35  82  CALM    30.28R
#ELGIN 3N       N/A         43  38  82  CALM    30.24R
#ELGIN 1E       N/A         38  33  82  CALM    N/A
#IMBLER SCHOOL  N/A         46  39  76  NE2     30.21R
#ISLAND CITY 4N N/A         49  47  93  CALM    30.25S
#LADD CYN DOT   N/A         48  37  65  SE9     N/A
#LA GRANDE ELEM N/A         53  41  64  CALM    30.27R
#UNION 1S       N/A         46  39  76  CALM    30.14R
$$

ORZ050-281510-
WALLOWA COUNTY

CITY            SKY/WX      TMP DP  RH  WIND    PRES   REMARKS
#IMNAHA SCHOOL  N/A         49  40  71  S2      30.26R
#IMNAHA 10S     N/A         47  37  68  SW3     30.26R
#JOSEPH 3N      N/A         44  36  73  CALM    30.27R
#JOSEPH 3W      N/A         52  39  61  E1      30.09S
#LOSTINE        N/A         44  37  76  CALM    30.04R
#MT HOWARD 8000 N/A         42  34  73  CALM    30.37S
#PROMISE 1S     N/A         49  40  71  CALM    30.29S
#WALLOWA SCHOOL N/A         42  36  79  CALM    30.24R



$$



USA.gov is the U.S. government's official web portal to all federal, state and local government web resources and services.